Вернуться в каталог

CZ-6A DEB

АктивенPO
NORAD 55902·DEBRIS·🇨🇳 China

Запущен Nov 11, 2022 с Taiyuan Satellite Launch Center

Loading…

Ближайшие Пролёты (ближайшие 24 часа)

TLE

СвежийSource: Space-Track

Эпоха: Sep 14, 2026, 22:21 UTC

1 55902U 22151ABA 26257.93150137  .00023484  00000-0  26039-2 0  9996
2 55902  98.5743 326.0272 0036231 328.5148  31.3897 14.86790348202776

Отслеживайте CZ-6A DEB в реальном времени с AllMySat

Download on the App Store